,,,PA_Meas_PMT16A,,PR_Meas_QMR101_102,,RH_Meas_QMH101,,SR_Meas_QMS101,,TA_Meas_QMH101,,GenWind,,GenWind,
date,time,status,PA,status,PR,status,RH,status,SR,status,TA,status,DirAvg,status,SpdAvg,
2008-09-03, 00:00:04,VALID,1004.56,VALID,0,VALID,93.9649,VALID,0.100563,VALID,22.711,VALID,336,VALID,0.258594,
2008-09-03, 00:01:04,VALID,1004.54,VALID,0,VALID,94.0031,VALID,0,VALID,22.6915,VALID,336,VALID,0.233594,
2008-09-03, 00:02:04,VALID,1004.56,VALID,0,VALID,94.0488,VALID,0.100563,VALID,22.6915,VALID,336,VALID,0.223438,
2008-09-03, 00:03:04,VALID,1004.59,VALID,0,VALID,94.0946,VALID,0,VALID,22.6721,VALID,336,VALID,0.326172,
2008-09-03, 00:04:04,VALID,1004.56,VALID,0,VALID,94.148,VALID,0.100563,VALID,22.6721,VALID,336,VALID,0.264062,
2008-09-03, 00:05:04,VALID,1004.6,VALID,0,VALID,94.2319,VALID,0.100563,VALID,22.6509,VALID,336,VALID,0.227734,
2008-09-03, 00:06:04,VALID,1004.56,VALID,0,VALID,94.3158,VALID,0,VALID,22.6509,VALID,336,VALID,0.397656,
2008-09-03, 00:07:04,VALID,1004.56,VALID,0,VALID,94.3082,VALID,0,VALID,22.6509,VALID,336,VALID,0.402734,
2008-09-03, 00:08:04,VALID,1004.57,VALID,0,VALID,94.2701,VALID,0,VALID,22.6509,VALID,336,VALID,0.276563,
2008-09-03, 00:09:04,VALID,1004.55,VALID,0,VALID,94.2853,VALID,0,VALID,22.6738,VALID,336,VALID,0.282422,
2008-09-03, 00:10:04,VALID,1004.57,VALID,0,VALID,94.2853,VALID,0,VALID,22.7127,VALID,336,VALID,0.344141,
2008-09-03, 00:11:04,VALID,1004.56,VALID,0,VALID,94.2243,VALID,0,VALID,22.7127,VALID,339,VALID,0.297656,
2008-09-03, 00:12:04,VALID,1004.58,VALID,0,VALID,94.1404,VALID,0,VALID,22.7127,VALID,339,VALID,0.302344,
2008-09-03, 00:13:04,VALID,1004.54,VALID,0,VALID,94.0946,VALID,0,VALID,22.7322,VALID,339,VALID,0.379687,
2008-09-03, 00:14:04,VALID,1004.57,VALID,0,VALID,94.0336,VALID,0,VALID,22.7322,VALID,339,VALID,0.2375,
2008-09-03, 00:15:04,VALID,1004.58,VALID,0,VALID,93.9725,VALID,0,VALID,22.7322,VALID,339,VALID,0.217578,
2008-09-03, 00:16:04,VALID,1004.59,VALID,0,VALID,93.9344,VALID,0,VALID,22.711,VALID,339,VALID,0.300391,
2008-09-03, 00:17:04,VALID,1004.58,VALID,0,VALID,93.9191,VALID,0,VALID,22.7127,VALID,339,VALID,0.265625,
2008-09-03, 00:18:04,VALID,1004.56,VALID,0,VALID,93.8963,VALID,0,VALID,22.7127,VALID,339,VALID,0.282422,
2008-09-03, 00:19:04,VALID,1004.57,VALID,0,VALID,93.8276,VALID,0,VALID,22.6738,VALID,339,VALID,0.294922,
2008-09-03, 00:20:04,VALID,1004.55,VALID,0,VALID,93.7742,VALID,0,VALID,22.6526,VALID,339,VALID,0.289063,
2008-09-03, 00:21:04,VALID,1004.57,VALID,0,VALID,93.7971,VALID,0,VALID,22.6349,VALID,339,VALID,0.290234,
2008-09-03, 00:22:04,VALID,1004.57,VALID,0,VALID,93.8505,VALID,0,VALID,22.6154,VALID,339,VALID,0.266406,
2008-09-03, 00:23:04,VALID,1004.52,VALID,0,VALID,93.9191,VALID,0,VALID,22.5748,VALID,339,VALID,0.0277344,
2008-09-03, 00:24:04,VALID,1004.5,VALID,0,VALID,93.9115,VALID,0,VALID,22.5765,VALID,339,VALID,0.190625,
2008-09-03, 00:25:04,VALID,1004.52,VALID,0,VALID,93.9039,VALID,0,VALID,22.5359,VALID,339,VALID,0.189063,
2008-09-03, 00:26:04,VALID,1004.5,VALID,0,VALID,93.9954,VALID,0,VALID,22.5164,VALID,339,VALID,0.177344,
2008-09-03, 00:27:04,VALID,1004.5,VALID,0,VALID,94.0717,VALID,0,VALID,22.5181,VALID,339,VALID,0,
2008-09-03, 00:28:04,VALID,1004.5,VALID,0,VALID,94.1328,VALID,0,VALID,22.4775,VALID,339,VALID,0.200781,
2008-09-03, 00:29:04,VALID,1004.5,VALID,0,VALID,94.1862,VALID,0,VALID,22.4775,VALID,339,VALID,0.223438,
2008-09-03, 00:30:04,VALID,1004.5,VALID,0,VALID,94.293,VALID,0,VALID,22.4775,VALID,339,VALID,0.275,
2008-09-03, 00:31:04,VALID,1004.46,VALID,0,VALID,94.3464,VALID,0,VALID,22.5181,VALID,339,VALID,0.314453,
2008-09-03, 00:32:04,VALID,1004.43,VALID,0,VALID,94.3464,VALID,0,VALID,22.4987,VALID,339,VALID,0.298828,
2008-09-03, 00:33:04,VALID,1004.43,VALID,0,VALID,94.3158,VALID,0,VALID,22.4792,VALID,339,VALID,0.302734,
2008-09-03, 00:34:04,VALID,1004.43,VALID,0,VALID,94.3921,VALID,0,VALID,22.4792,VALID,339,VALID,0.214062,
2008-09-03, 00:35:04,VALID,1004.41,VALID,0,VALID,94.5371,VALID,0,VALID,22.4792,VALID,339,VALID,0.333203,
2008-09-03, 00:36:04,VALID,1004.4,VALID,0,VALID,94.5066,VALID,0,VALID,22.458,VALID,339,VALID,0.405859,
2008-09-03, 00:37:04,VALID,1004.39,VALID,0,VALID,94.5142,VALID,0,VALID,22.458,VALID,339,VALID,0.476953,
2008-09-03, 00:38:04,VALID,1004.37,VALID,0,VALID,94.5142,VALID,0,VALID,22.4403,VALID,339,VALID,0.387109,
2008-09-03, 00:39:04,VALID,1004.35,VALID,0,VALID,94.5523,VALID,0,VALID,22.4597,VALID,339,VALID,0.260938,
2008-09-03, 00:40:04,VALID,1004.39,VALID,0,VALID,94.56,VALID,0,VALID,22.4403,VALID,339,VALID,0.251172,
2008-09-03, 00:41:04,VALID,1004.37,VALID,0,VALID,94.5905,VALID,0,VALID,22.4403,VALID,339,VALID,0.198047,
2008-09-03, 00:42:04,VALID,1004.38,VALID,0,VALID,94.6134,VALID,0,VALID,22.4191,VALID,339,VALID,0.157813,
2008-09-03, 00:43:04,VALID,1004.36,VALID,0,VALID,94.6515,VALID,0,VALID,22.4208,VALID,339,VALID,0.224219,
2008-09-03, 00:44:04,VALID,1004.38,VALID,0,VALID,94.6973,VALID,0,VALID,22.4208,VALID,339,VALID,0.196875,
2008-09-03, 00:45:04,VALID,1004.37,VALID,0,VALID,94.7278,VALID,0,VALID,22.4208,VALID,339,VALID,0.216406,
2008-09-03, 00:46:04,VALID,1004.35,VALID,0,VALID,94.7431,VALID,0,VALID,22.4208,VALID,339,VALID,0.215234,
2008-09-03, 00:47:04,VALID,1004.34,VALID,0,VALID,94.7354,VALID,0,VALID,22.4208,VALID,339,VALID,0.305469,
2008-09-03, 00:48:04,VALID,1004.33,VALID,0,VALID,94.7965,VALID,0,VALID,22.3802,VALID,339,VALID,0.352734,
2008-09-03, 00:49:04,VALID,1004.34,VALID,0,VALID,94.8651,VALID,0,VALID,22.3802,VALID,339,VALID,0.302734,
2008-09-03, 00:50:04,VALID,1004.34,VALID,0,VALID,94.8346,VALID,0,VALID,22.4208,VALID,339,VALID,0.357812,
2008-09-03, 00:51:04,VALID,1004.34,VALID,0,VALID,94.8651,VALID,0,VALID,22.4014,VALID,339,VALID,0.306641,
2008-09-03, 00:52:04,VALID,1004.31,VALID,0,VALID,94.9033,VALID,0,VALID,22.3802,VALID,339,VALID,0.250391,
2008-09-03, 00:53:04,VALID,1004.31,VALID,0,VALID,94.9872,VALID,0,VALID,22.3997,VALID,339,VALID,0.165625,
2008-09-03, 00:54:04,VALID,1004.31,VALID,0,VALID,94.9796,VALID,0,VALID,22.4208,VALID,339,VALID,0.314844,
2008-09-03, 00:55:04,VALID,1004.29,VALID,0,VALID,94.9643,VALID,0,VALID,22.3802,VALID,339,VALID,0.195703,
2008-09-03, 00:56:04,VALID,1004.28,VALID,0,VALID,94.9796,VALID,0,VALID,22.3997,VALID,339,VALID,0.335938,
2008-09-03, 00:57:04,VALID,1004.29,VALID,0,VALID,94.9872,VALID,0,VALID,22.3819,VALID,339,VALID,0.218359,
2008-09-03, 00:58:04,VALID,1004.28,VALID,0,VALID,94.9872,VALID,0,VALID,22.3802,VALID,339,VALID,0.239844,
2008-09-03, 00:59:04,VALID,1004.28,VALID,0,VALID,94.9567,VALID,0,VALID,22.3608,VALID,339,VALID,0.294141,
2008-09-03, 01:00:04,VALID,1004.26,VALID,0,VALID,95.0024,VALID,0,VALID,22.3413,VALID,339,VALID,0.276563,
2008-09-03, 01:01:04,VALID,1004.24,VALID,0,VALID,95.0253,VALID,0,VALID,22.4031,VALID,339,VALID,0.183203,
2008-09-03, 01:02:04,VALID,1004.21,VALID,0,VALID,95.0558,VALID,0,VALID,22.3413,VALID,339,VALID,0.113281,
2008-09-03, 01:03:04,VALID,1004.21,VALID,0,VALID,95.0558,VALID,0,VALID,22.3819,VALID,339,VALID,0.211328,
2008-09-03, 01:04:04,VALID,1004.19,VALID,0,VALID,95.0558,VALID,0,VALID,22.3608,VALID,339,VALID,0.112891,
2008-09-03, 01:05:04,VALID,1004.2,VALID,0,VALID,95.094,VALID,0,VALID,22.3608,VALID,339,VALID,0.165234,
2008-09-03, 01:06:04,VALID,1004.18,VALID,0,VALID,95.0787,VALID,0,VALID,22.3802,VALID,339,VALID,0.226172,
2008-09-03, 01:07:04,VALID,1004.16,VALID,0,VALID,95.1093,VALID,0,VALID,22.4014,VALID,339,VALID,0.314063,
2008-09-03, 01:08:04,VALID,1004.15,VALID,0,VALID,95.1169,VALID,0,VALID,22.4208,VALID,339,VALID,0.259766,
2008-09-03, 01:09:04,VALID,1004.13,VALID,0,VALID,95.1474,VALID,0,VALID,22.3997,VALID,339,VALID,0.142188,
2008-09-03, 01:10:04,VALID,1004.11,VALID,0,VALID,95.0635,VALID,0,VALID,22.4014,VALID,339,VALID,0.273828,
2008-09-03, 01:11:04,VALID,1004.09,VALID,0,VALID,95.0253,VALID,0,VALID,22.3802,VALID,339,VALID,0.201953,
2008-09-03, 01:12:04,VALID,1004.1,VALID,0,VALID,95.0711,VALID,0,VALID,22.4014,VALID,339,VALID,0.174609,
2008-09-03, 01:13:04,VALID,1004.07,VALID,0,VALID,95.0482,VALID,0,VALID,22.4014,VALID,339,VALID,0.135547,
2008-09-03, 01:14:04,VALID,1004.08,VALID,0,VALID,95.0558,VALID,0,VALID,22.3819,VALID,339,VALID,0.0199219,
2008-09-03, 01:15:04,VALID,1004.09,VALID,0,VALID,95.033,VALID,0,VALID,22.4031,VALID,339,VALID,0,
2008-09-03, 01:16:04,VALID,1004.08,VALID,0,VALID,95.0635,VALID,0,VALID,22.3625,VALID,339,VALID,0,
2008-09-03, 01:17:04,VALID,1004.13,VALID,0,VALID,95.0558,VALID,0,VALID,22.3819,VALID,342,VALID,0.222266,
2008-09-03, 01:18:04,VALID,1004.13,VALID,0,VALID,95.1398,VALID,0,VALID,22.3802,VALID,355,VALID,0.10625,
2008-09-03, 01:19:04,VALID,1004.14,VALID,0,VALID,95.1627,VALID,0,VALID,22.3997,VALID,51,VALID,0.0804688,
2008-09-03, 01:20:04,VALID,1004.13,VALID,0,VALID,95.1932,VALID,0,VALID,22.4191,VALID,51,VALID,0.121875,
2008-09-03, 01:21:04,VALID,1004.16,VALID,0,VALID,95.1703,VALID,0,VALID,22.4403,VALID,51,VALID,0.0078125,
2008-09-03, 01:22:04,VALID,1004.14,VALID,0,VALID,95.1779,VALID,0,VALID,22.4597,VALID,51,VALID,0.155078,
2008-09-03, 01:23:04,VALID,1004.15,VALID,0,VALID,95.1779,VALID,0,VALID,22.4792,VALID,51,VALID,0,
2008-09-03, 01:24:04,VALID,1004.15,VALID,0,VALID,95.1932,VALID,0,VALID,22.4775,VALID,51,VALID,0.464453,
2008-09-03, 01:25:04,VALID,1004.13,VALID,0,VALID,95.1932,VALID,0,VALID,22.4987,VALID,51,VALID,0.495703,
2008-09-03, 01:26:04,VALID,1004.16,VALID,0,VALID,95.1779,VALID,0,VALID,22.497,VALID,51,VALID,0.491016,
2008-09-03, 01:27:04,VALID,1004.15,VALID,0,VALID,95.155,VALID,0,VALID,22.5181,VALID,51,VALID,0.322266,
2008-09-03, 01:28:04,VALID,1004.12,VALID,0,VALID,95.1321,VALID,0,VALID,22.5181,VALID,51,VALID,0.262109,
2008-09-03, 01:29:04,VALID,1004.13,VALID,0,VALID,95.1398,VALID,0,VALID,22.497,VALID,51,VALID,0.329297,
2008-09-03, 01:30:04,VALID,1004.12,VALID,0,VALID,95.1855,VALID,0,VALID,22.5553,VALID,67,VALID,0.214844,
2008-09-03, 01:31:04,VALID,1004.09,VALID,0,VALID,95.155,VALID,0,VALID,22.5553,VALID,67,VALID,0.261328,
2008-09-03, 01:32:04,VALID,1004.09,VALID,0,VALID,95.1245,VALID,0,VALID,22.596,VALID,68,VALID,0.435547,
2008-09-03, 01:33:04,VALID,1004.1,VALID,0,VALID,95.0635,VALID,0,VALID,22.6154,VALID,70,VALID,0.207813,
2008-09-03, 01:34:04,VALID,1004.11,VALID,0,VALID,95.0635,VALID,0,VALID,22.5942,VALID,70,VALID,0.300781,
2008-09-03, 01:35:04,VALID,1004.08,VALID,0,VALID,95.033,VALID,0,VALID,22.6349,VALID,69,VALID,0.392188,
2008-09-03, 01:36:04,VALID,1004.07,VALID,0,VALID,94.9414,VALID,0,VALID,22.6137,VALID,69,VALID,0.269531,
2008-09-03, 01:37:04,VALID,1004.05,VALID,0,VALID,94.888,VALID,0,VALID,22.6332,VALID,69,VALID,0.368359,
2008-09-03, 01:38:04,VALID,1004.05,VALID,0,VALID,94.8422,VALID,0,VALID,22.6543,VALID,69,VALID,0.000390625,
2008-09-03, 01:39:04,VALID,1004.07,VALID,0,VALID,94.7965,VALID,0,VALID,22.6543,VALID,69,VALID,0.426953,
2008-09-03, 01:40:04,VALID,1004.07,VALID,0,VALID,94.7736,VALID,0,VALID,22.6543,VALID,69,VALID,0.403125,
2008-09-03, 01:41:04,VALID,1004.07,VALID,0,VALID,94.7583,VALID,0,VALID,22.6332,VALID,69,VALID,0.394922,
2008-09-03, 01:42:04,VALID,1004.06,VALID,0,VALID,94.7049,VALID,0,VALID,22.6526,VALID,69,VALID,0.296094,
2008-09-03, 01:43:04,VALID,1004.05,VALID,0,VALID,94.6897,VALID,0,VALID,22.6526,VALID,69,VALID,0.0648438,
2008-09-03, 01:44:04,VALID,1004.05,VALID,0,VALID,94.6668,VALID,0,VALID,22.6738,VALID,69,VALID,0.248437,
2008-09-03, 01:45:04,VALID,1004.05,VALID,0,VALID,94.6057,VALID,0,VALID,22.6526,VALID,62,VALID,0.190234,
2008-09-03, 01:46:04,VALID,1004.07,VALID,0,VALID,94.5752,VALID,0,VALID,22.6543,VALID,62,VALID,0.195703,
2008-09-03, 01:47:04,VALID,1004.02,VALID,0,VALID,94.5295,VALID,0,VALID,22.6332,VALID,62,VALID,0,
2008-09-03, 01:48:04,VALID,1004,VALID,0,VALID,94.5295,VALID,0,VALID,22.6137,VALID,62,VALID,0.280469,
2008-09-03, 01:49:04,VALID,1004.01,VALID,0,VALID,94.5523,VALID,0,VALID,22.6349,VALID,62,VALID,0,
2008-09-03, 01:50:04,VALID,1004,VALID,0,VALID,94.5447,VALID,0,VALID,22.6349,VALID,62,VALID,0,
2008-09-03, 01:51:04,VALID,1004,VALID,0,VALID,94.5523,VALID,0,VALID,22.6137,VALID,62,VALID,0,
2008-09-03, 01:52:04,VALID,1003.97,VALID,0,VALID,94.5447,VALID,0,VALID,22.5942,VALID,62,VALID,0,
2008-09-03, 01:53:04,VALID,1003.96,VALID,0,VALID,94.5371,VALID,0,VALID,22.5942,VALID,62,VALID,0.0890625,
2008-09-03, 01:54:04,VALID,1003.97,VALID,0,VALID,94.4913,VALID,0,VALID,22.596,VALID,62,VALID,0,
2008-09-03, 01:55:04,VALID,1004,VALID,0,VALID,94.4913,VALID,0,VALID,22.5359,VALID,62,VALID,0,
2008-09-03, 01:56:04,VALID,1003.97,VALID,0,VALID,94.4684,VALID,0,VALID,22.5376,VALID,62,VALID,0,
2008-09-03, 01:57:04,VALID,1003.96,VALID,0,VALID,94.4837,VALID,0,VALID,22.5164,VALID,62,VALID,0.187109,
2008-09-03, 01:58:04,VALID,1003.95,VALID,0,VALID,94.5295,VALID,0,VALID,22.4775,VALID,62,VALID,0,
2008-09-03, 01:59:04,VALID,1003.99,VALID,0,VALID,94.5676,VALID,0,VALID,22.497,VALID,60,VALID,0,
2008-09-03, 02:00:04,VALID,1003.98,VALID,0,VALID,94.5752,VALID,0,VALID,22.4775,VALID,59,VALID,0,
2008-09-03, 02:01:04,VALID,1003.99,VALID,0,VALID,94.5905,VALID,0,VALID,22.458,VALID,59,VALID,0,
2008-09-03, 02:02:04,VALID,1004.02,VALID,0,VALID,94.5905,VALID,0,VALID,22.458,VALID,59,VALID,0,
2008-09-03, 02:03:04,VALID,1004.03,VALID,0,VALID,94.7278,VALID,0,VALID,22.458,VALID,62,VALID,0.287891,
2008-09-03, 02:04:04,VALID,1004,VALID,0,VALID,94.7278,VALID,0,VALID,22.4775,VALID,62,VALID,0.0101562,
2008-09-03, 02:05:04,VALID,1004.02,VALID,0,VALID,94.766,VALID,0,VALID,22.4369,VALID,62,VALID,0.133203,
2008-09-03, 02:06:04,VALID,1004.01,VALID,0,VALID,94.8117,VALID,0,VALID,22.497,VALID,62,VALID,0.245703,
2008-09-03, 02:07:04,VALID,1004.01,VALID,0,VALID,94.8422,VALID,0,VALID,22.5164,VALID,62,VALID,0.428125,
2008-09-03, 02:08:04,VALID,1004,VALID,0,VALID,94.8956,VALID,0,VALID,22.5376,VALID,62,VALID,0.429688,
2008-09-03, 02:09:04,VALID,1004.02,VALID,0,VALID,94.9033,VALID,0,VALID,22.557,VALID,62,VALID,0.430469,
2008-09-03, 02:10:04,VALID,1004,VALID,0,VALID,94.888,VALID,0,VALID,22.5765,VALID,62,VALID,0.438281,
2008-09-03, 02:11:04,VALID,1003.99,VALID,0,VALID,94.8728,VALID,0,VALID,22.6154,VALID,62,VALID,0.298828,
2008-09-03, 02:12:04,VALID,1004.01,VALID,0,VALID,94.827,VALID,0,VALID,22.6154,VALID,62,VALID,0.298047,
2008-09-03, 02:13:04,VALID,1004.01,VALID,0,VALID,94.7888,VALID,0,VALID,22.6154,VALID,63,VALID,0.361328,
2008-09-03, 02:14:04,VALID,1003.99,VALID,0,VALID,94.7583,VALID,0,VALID,22.6349,VALID,63,VALID,0.0597656,
2008-09-03, 02:15:04,VALID,1003.97,VALID,0,VALID,94.7431,VALID,0,VALID,22.6561,VALID,63,VALID,0.168359,
2008-09-03, 02:16:04,VALID,1003.97,VALID,0,VALID,94.682,VALID,0,VALID,22.6349,VALID,63,VALID,0.25,
2008-09-03, 02:17:04,VALID,1003.95,VALID,0,VALID,94.621,VALID,0,VALID,22.6366,VALID,63,VALID,0.232812,
2008-09-03, 02:18:04,VALID,1003.95,VALID,0,VALID,94.5905,VALID,0,VALID,22.6154,VALID,63,VALID,0.407813,
2008-09-03, 02:19:04,VALID,1003.95,VALID,0,VALID,94.5523,VALID,0,VALID,22.5765,VALID,63,VALID,0.19375,
2008-09-03, 02:20:04,VALID,1003.94,VALID,0,VALID,94.5218,VALID,0,VALID,22.5782,VALID,63,VALID,0.201953,
2008-09-03, 02:21:04,VALID,1003.96,VALID,0,VALID,94.4989,VALID,0,VALID,22.5588,VALID,63,VALID,0.245703,
2008-09-03, 02:22:04,VALID,1003.95,VALID,0,VALID,94.5066,VALID,0,VALID,22.5181,VALID,63,VALID,0,
2008-09-03, 02:23:04,VALID,1003.94,VALID,0,VALID,94.56,VALID,0,VALID,22.497,VALID,63,VALID,0.302734,
2008-09-03, 02:24:04,VALID,1003.92,VALID,0,VALID,94.4684,VALID,0,VALID,22.4775,VALID,58,VALID,0.2375,
2008-09-03, 02:25:04,VALID,1003.91,VALID,0,VALID,94.3998,VALID,0,VALID,22.4191,VALID,58,VALID,0.190234,
2008-09-03, 02:26:04,VALID,1003.93,VALID,0,VALID,94.4227,VALID,0,VALID,22.3997,VALID,58,VALID,0.235938,
2008-09-03, 02:27:04,VALID,1003.89,VALID,0,VALID,94.4455,VALID,0,VALID,22.3413,VALID,58,VALID,0.18125,
2008-09-03, 02:28:04,VALID,1003.89,VALID,0,VALID,94.5142,VALID,0,VALID,22.3413,VALID,58,VALID,0.186719,
2008-09-03, 02:29:04,VALID,1003.87,VALID,0,VALID,94.5676,VALID,0,VALID,22.343,VALID,58,VALID,0.271094,
2008-09-03, 02:30:04,VALID,1003.83,VALID,0,VALID,94.621,VALID,0,VALID,22.3235,VALID,58,VALID,0,
2008-09-03, 02:31:04,VALID,1003.8,VALID,0,VALID,94.6973,VALID,0,VALID,22.2829,VALID,58,VALID,0,
2008-09-03, 02:32:04,VALID,1003.79,VALID,0,VALID,94.7431,VALID,0,VALID,22.2829,VALID,58,VALID,0,
2008-09-03, 02:33:04,VALID,1003.77,VALID,0,VALID,94.7507,VALID,0,VALID,22.2652,VALID,58,VALID,0,
2008-09-03, 02:34:04,VALID,1003.77,VALID,0,VALID,94.7888,VALID,0,VALID,22.2652,VALID,58,VALID,0,
2008-09-03, 02:35:04,VALID,1003.76,VALID,0,VALID,94.8194,VALID,0,VALID,22.2246,VALID,58,VALID,0,
2008-09-03, 02:36:04,VALID,1003.75,VALID,0,VALID,94.9338,VALID,0,VALID,22.2652,VALID,58,VALID,0,
2008-09-03, 02:37:04,VALID,1003.73,VALID,0,VALID,95.0635,VALID,0,VALID,22.2829,VALID,58,VALID,0,
2008-09-03, 02:38:04,VALID,1003.75,VALID,0,VALID,95.1321,VALID,0,VALID,22.3218,VALID,58,VALID,0,
2008-09-03, 02:39:04,VALID,1003.77,VALID,0,VALID,95.155,VALID,0,VALID,22.3218,VALID,58,VALID,0,
2008-09-03, 02:40:04,VALID,1003.77,VALID,0,VALID,95.2466,VALID,0,VALID,22.3608,VALID,58,VALID,0.426953,
2008-09-03, 02:41:04,VALID,1003.76,VALID,0,VALID,95.2313,VALID,0,VALID,22.3802,VALID,58,VALID,0,
2008-09-03, 02:42:04,VALID,1003.79,VALID,0,VALID,95.2313,VALID,0,VALID,22.4014,VALID,58,VALID,0,
2008-09-03, 02:43:04,VALID,1003.79,VALID,0,VALID,95.2389,VALID,0,VALID,22.3997,VALID,58,VALID,0,
2008-09-03, 02:44:04,VALID,1003.79,VALID,0,VALID,95.3076,VALID,0.100563,VALID,22.4191,VALID,58,VALID,0.119531,
2008-09-03, 02:45:04,VALID,1003.79,VALID,0,VALID,95.3763,VALID,0,VALID,22.4792,VALID,64,VALID,0.297656,
2008-09-03, 02:46:04,VALID,1003.79,VALID,0,VALID,95.3763,VALID,0,VALID,22.497,VALID,68,VALID,0.119922,
2008-09-03, 02:47:04,VALID,1003.79,VALID,0,VALID,95.3991,VALID,0.100563,VALID,22.5359,VALID,68,VALID,0.248047,
2008-09-03, 02:48:04,VALID,1003.76,VALID,0,VALID,95.3915,VALID,0,VALID,22.5748,VALID,68,VALID,0.437109,
2008-09-03, 02:49:04,VALID,1003.76,VALID,0,VALID,95.3686,VALID,0,VALID,22.5942,VALID,67,VALID,0.376563,
2008-09-03, 02:50:04,VALID,1003.74,VALID,0,VALID,95.361,VALID,0,VALID,22.612,VALID,58,VALID,0.341797,
2008-09-03, 02:51:04,VALID,1003.72,VALID,0,VALID,95.3,VALID,0,VALID,22.6137,VALID,58,VALID,0.394531,
2008-09-03, 02:52:04,VALID,1003.73,VALID,0,VALID,95.2695,VALID,0,VALID,22.6332,VALID,58,VALID,0.444922,
2008-09-03, 02:53:04,VALID,1003.75,VALID,0,VALID,95.3534,VALID,0,VALID,22.6721,VALID,33,VALID,0.4625,
2008-09-03, 02:54:04,VALID,1003.73,VALID,0,VALID,95.2313,VALID,0,VALID,22.6933,VALID,33,VALID,0.328125,
2008-09-03, 02:55:04,VALID,1003.74,VALID,0,VALID,95.0787,VALID,0.100563,VALID,22.6721,VALID,33,VALID,0.282422,
2008-09-03, 02:56:04,VALID,1003.72,VALID,0,VALID,94.9643,VALID,0,VALID,22.6332,VALID,33,VALID,0.254687,
2008-09-03, 02:57:04,VALID,1003.71,VALID,0,VALID,94.8956,VALID,0,VALID,22.6137,VALID,33,VALID,0,
2008-09-03, 02:58:04,VALID,1003.69,VALID,0,VALID,94.8422,VALID,0,VALID,22.6154,VALID,33,VALID,0,
2008-09-03, 02:59:04,VALID,1003.72,VALID,0,VALID,94.8117,VALID,0,VALID,22.5553,VALID,33,VALID,0,
2008-09-03, 03:00:04,VALID,1003.69,VALID,0,VALID,94.8728,VALID,0.100563,VALID,22.5748,VALID,33,VALID,0,
2008-09-03, 03:01:04,VALID,1003.69,VALID,0,VALID,94.8728,VALID,0,VALID,22.5553,VALID,33,VALID,0,
2008-09-03, 03:02:04,VALID,1003.68,VALID,0,VALID,94.9185,VALID,0,VALID,22.557,VALID,33,VALID,0,
2008-09-03, 03:03:04,VALID,1003.69,VALID,0,VALID,94.9796,VALID,0,VALID,22.5359,VALID,33,VALID,0,
2008-09-03, 03:04:04,VALID,1003.66,VALID,0,VALID,94.9719,VALID,0.100563,VALID,22.5164,VALID,33,VALID,0,
2008-09-03, 03:05:04,VALID,1003.66,VALID,0,VALID,94.9796,VALID,0,VALID,22.497,VALID,33,VALID,0,
2008-09-03, 03:06:04,VALID,1003.69,VALID,0,VALID,95.0101,VALID,0,VALID,22.497,VALID,33,VALID,0,
2008-09-03, 03:07:04,VALID,1003.65,VALID,0,VALID,95.0635,VALID,0,VALID,22.497,VALID,33,VALID,0,
2008-09-03, 03:08:04,VALID,1003.69,VALID,0,VALID,95.1093,VALID,0,VALID,22.5164,VALID,33,VALID,0,
2008-09-03, 03:09:04,VALID,1003.72,VALID,0,VALID,95.1016,VALID,0,VALID,22.5164,VALID,33,VALID,0,
2008-09-03, 03:10:04,VALID,1003.76,VALID,0,VALID,95.1398,VALID,0,VALID,22.5376,VALID,33,VALID,0,
2008-09-03, 03:11:04,VALID,1003.8,VALID,0,VALID,95.2389,VALID,0,VALID,22.5359,VALID,33,VALID,0,
2008-09-03, 03:12:04,VALID,1003.78,VALID,0,VALID,95.3152,VALID,0,VALID,22.5748,VALID,33,VALID,0,
2008-09-03, 03:13:04,VALID,1003.78,VALID,0,VALID,95.4068,VALID,0,VALID,22.6332,VALID,33,VALID,0,
2008-09-03, 03:14:04,VALID,1003.8,VALID,0,VALID,95.4526,VALID,0,VALID,22.6704,VALID,33,VALID,0,
2008-09-03, 03:15:04,VALID,1003.81,VALID,0,VALID,95.3915,VALID,0,VALID,22.711,VALID,33,VALID,0,
2008-09-03, 03:16:04,VALID,1003.77,VALID,0,VALID,95.2847,VALID,0,VALID,22.6915,VALID,33,VALID,0,
2008-09-03, 03:17:04,VALID,1003.82,VALID,0,VALID,95.4297,VALID,0,VALID,22.711,VALID,33,VALID,0,
2008-09-03, 03:18:04,VALID,1003.81,VALID,0,VALID,95.2695,VALID,0,VALID,22.711,VALID,33,VALID,0,
2008-09-03, 03:19:04,VALID,1003.82,VALID,0,VALID,95.3915,VALID,0,VALID,22.7516,VALID,33,VALID,0,
2008-09-03, 03:20:04,VALID,1003.83,VALID,0,VALID,95.361,VALID,0,VALID,22.7287,VALID,33,VALID,0,
2008-09-03, 03:21:04,VALID,1003.86,VALID,0,VALID,95.3991,VALID,0,VALID,22.7888,VALID,33,VALID,0,
2008-09-03, 03:22:04,VALID,1003.9,VALID,0,VALID,95.3381,VALID,0,VALID,22.7677,VALID,33,VALID,0,
2008-09-03, 03:23:04,VALID,1003.89,VALID,0,VALID,95.2008,VALID,0,VALID,22.7694,VALID,33,VALID,0,
2008-09-03, 03:24:04,VALID,1003.91,VALID,0,VALID,95.1779,VALID,0,VALID,22.7499,VALID,33,VALID,0,
2008-09-03, 03:25:04,VALID,1003.87,VALID,0,VALID,95.3457,VALID,0,VALID,22.7694,VALID,33,VALID,0,
2008-09-03, 03:26:04,VALID,1003.88,VALID,0,VALID,95.3076,VALID,0,VALID,22.8295,VALID,33,VALID,0,
2008-09-03, 03:27:04,VALID,1003.88,VALID,0,VALID,95.3381,VALID,0,VALID,22.8295,VALID,33,VALID,0,
2008-09-03, 03:28:04,VALID,1003.88,VALID,0,VALID,95.2618,VALID,0,VALID,22.8295,VALID,33,VALID,0.319141,
2008-09-03, 03:29:04,VALID,1003.86,VALID,0,VALID,95.2008,VALID,0,VALID,22.8083,VALID,33,VALID,0.244141,
2008-09-03, 03:30:04,VALID,1003.89,VALID,0,VALID,95.2161,VALID,0.100563,VALID,22.8083,VALID,33,VALID,0.261328,
2008-09-03, 03:31:04,VALID,1003.86,VALID,0,VALID,95.2542,VALID,0,VALID,22.8295,VALID,32,VALID,0.360938,
2008-09-03, 03:32:04,VALID,1003.84,VALID,0,VALID,95.2466,VALID,0,VALID,22.8083,VALID,24,VALID,0.383203,
2008-09-03, 03:33:04,VALID,1003.87,VALID,0,VALID,95.2542,VALID,0,VALID,22.8295,VALID,12,VALID,0.354297,
2008-09-03, 03:34:04,VALID,1003.86,VALID,0,VALID,95.2466,VALID,0,VALID,22.8083,VALID,12,VALID,0.353125,
2008-09-03, 03:35:04,VALID,1003.85,VALID,0,VALID,95.2618,VALID,0,VALID,22.8278,VALID,12,VALID,0.405078,
2008-09-03, 03:36:04,VALID,1003.85,VALID,0,VALID,95.2618,VALID,0,VALID,22.8472,VALID,12,VALID,0.259766,
2008-09-03, 03:37:04,VALID,1003.85,VALID,0,VALID,95.2695,VALID,0,VALID,22.8278,VALID,12,VALID,0.390625,
2008-09-03, 03:38:04,VALID,1003.87,VALID,0,VALID,95.2695,VALID,0,VALID,22.8472,VALID,12,VALID,0,
2008-09-03, 03:39:04,VALID,1003.86,VALID,0,VALID,95.2389,VALID,0,VALID,22.8489,VALID,12,VALID,0.436719,
2008-09-03, 03:40:04,VALID,1003.83,VALID,0,VALID,95.2389,VALID,0,VALID,22.8278,VALID,12,VALID,0.0449219,
2008-09-03, 03:41:04,VALID,1003.85,VALID,0,VALID,95.2389,VALID,0,VALID,22.8278,VALID,12,VALID,0.0390625,
2008-09-03, 03:42:04,VALID,1003.82,VALID,0,VALID,95.2161,VALID,0,VALID,22.8083,VALID,12,VALID,0,
2008-09-03, 03:43:04,VALID,1003.84,VALID,0,VALID,95.2771,VALID,0,VALID,22.7888,VALID,12,VALID,0,
2008-09-03, 03:44:04,VALID,1003.82,VALID,0,VALID,95.2847,VALID,0,VALID,22.8083,VALID,12,VALID,0,
2008-09-03, 03:45:04,VALID,1003.85,VALID,0,VALID,95.2923,VALID,0,VALID,22.8295,VALID,12,VALID,0,
2008-09-03, 03:46:04,VALID,1003.81,VALID,0,VALID,95.3,VALID,0,VALID,22.8083,VALID,12,VALID,0,
2008-09-03, 03:47:04,VALID,1003.79,VALID,0,VALID,95.2695,VALID,0,VALID,22.7888,VALID,12,VALID,0,
2008-09-03, 03:48:04,VALID,1003.82,VALID,0,VALID,95.3076,VALID,0,VALID,22.7888,VALID,12,VALID,0,
2008-09-03, 03:49:04,VALID,1003.78,VALID,0,VALID,95.3229,VALID,0,VALID,22.7694,VALID,12,VALID,0,